Time,TemperatureF,DewpointF,PressureIn,WindDirection,WindDirectionDegrees,WindSpeedMPH,WindSpeedGustMPH,Humidity,HourlyPrecipIn,Conditions,Clouds,dailyrainin,SoftwareType,DateUTC
2013-08-03 00:12:00,55.2,52.3,29.90,NW,322,0.0,0.0,90,0.00,,---,0.00,VWS V14.01,2013-08-03 07:12:00,
2013-08-03 00:21:00,55.1,52.2,29.91,NW,322,0.0,0.0,90,0.00,,---,0.00,VWS V14.01,2013-08-03 07:21:00,
2013-08-03 00:29:00,55.2,52.3,29.91,NW,322,0.0,0.0,90,0.00,,---,0.00,VWS V14.01,2013-08-03 07:29:00,
2013-08-03 00:42:00,55.2,52.0,29.91,NW,322,0.0,0.0,89,0.00,,---,0.00,VWS V14.01,2013-08-03 07:42:00,
2013-08-03 00:52:00,55.1,51.9,29.90,NW,322,0.0,0.0,89,0.00,,---,0.00,VWS V14.01,2013-08-03 07:52:00,
2013-08-03 00:59:00,55.0,52.1,29.91,NW,322,0.0,0.0,90,0.00,,---,0.00,VWS V14.01,2013-08-03 07:59:00,
2013-08-03 01:12:00,55.0,52.1,29.91,NW,322,0.0,0.0,90,0.00,,---,0.00,VWS V14.01,2013-08-03 08:12:00,
2013-08-03 01:29:00,55.0,52.1,29.91,NW,322,0.0,0.0,90,0.00,,---,0.00,VWS V14.01,2013-08-03 08:29:00,
2013-08-03 01:42:00,54.9,52.0,29.91,NW,322,0.0,0.0,90,0.00,,---,0.00,VWS V14.01,2013-08-03 08:42:00,
2013-08-03 01:52:00,54.7,51.8,29.91,NW,322,0.0,0.0,90,0.00,,---,0.00,VWS V14.01,2013-08-03 08:52:00,
2013-08-03 01:59:00,54.6,51.7,29.91,NW,322,0.0,0.0,90,0.00,,---,0.00,VWS V14.01,2013-08-03 08:59:00,
2013-08-03 02:12:00,54.3,51.4,29.91,NW,322,0.0,0.0,90,0.00,,---,0.00,VWS V14.01,2013-08-03 09:12:00,
2013-08-03 02:21:00,54.1,51.5,29.91,NW,322,0.0,0.0,91,0.00,,---,0.00,VWS V14.01,2013-08-03 09:21:00,
2013-08-03 02:29:00,54.0,51.4,29.91,NW,322,0.0,0.0,91,0.00,,---,0.00,VWS V14.01,2013-08-03 09:29:00,
2013-08-03 02:41:00,53.7,51.1,29.91,NW,323,0.0,0.0,91,0.00,,---,0.00,VWS V14.01,2013-08-03 09:41:00,
2013-08-03 02:52:00,53.5,51.2,29.91,NW,322,0.0,0.0,92,0.00,,---,0.00,VWS V14.01,2013-08-03 09:52:00,
2013-08-03 02:59:00,53.3,51.0,29.91,NW,322,0.0,0.0,92,0.00,,---,0.00,VWS V14.01,2013-08-03 09:59:00,
2013-08-03 03:12:00,53.0,50.7,29.91,NW,322,0.0,0.0,92,0.00,,---,0.00,VWS V14.01,2013-08-03 10:12:00,
2013-08-03 03:21:00,52.8,50.5,29.91,NW,322,0.0,0.0,92,0.00,,---,0.00,VWS V14.01,2013-08-03 10:21:00,
2013-08-03 03:29:00,52.7,50.7,29.92,NW,322,0.0,0.0,93,0.00,,---,0.00,VWS V14.01,2013-08-03 10:29:00,
2013-08-03 03:42:00,52.5,50.5,29.91,NW,322,0.0,0.0,93,0.00,,---,0.00,VWS V14.01,2013-08-03 10:42:00,
2013-08-03 03:52:00,52.3,50.3,29.91,NW,322,0.0,0.0,93,0.00,,---,0.00,VWS V14.01,2013-08-03 10:52:00,
2013-08-03 03:59:00,52.2,50.2,29.92,NW,322,0.0,0.0,93,0.00,,---,0.00,VWS V14.01,2013-08-03 10:59:00,
2013-08-03 04:12:00,51.9,49.9,29.92,NW,322,0.0,0.0,93,0.00,,---,0.00,VWS V14.01,2013-08-03 11:12:00,
2013-08-03 04:22:00,51.6,49.6,29.92,NW,322,0.0,0.0,93,0.00,,---,0.00,VWS V14.01,2013-08-03 11:22:00,
2013-08-03 04:29:00,51.4,49.4,29.92,NW,322,0.0,0.0,93,0.00,,---,0.00,VWS V14.01,2013-08-03 11:29:00,
2013-08-03 04:42:00,51.0,49.3,29.92,NW,322,0.0,0.0,94,0.00,,---,0.00,VWS V14.01,2013-08-03 11:42:00,
2013-08-03 04:52:00,50.8,49.1,29.92,NW,322,0.0,0.0,94,0.00,,---,0.00,VWS V14.01,2013-08-03 11:52:00,
2013-08-03 04:59:00,50.6,48.9,29.92,NW,322,0.0,0.0,94,0.00,,---,0.00,VWS V14.01,2013-08-03 11:59:00,
2013-08-03 05:12:00,50.3,48.9,29.92,NW,322,0.0,0.0,95,0.00,,---,0.00,VWS V14.01,2013-08-03 12:12:00,
2013-08-03 05:22:00,50.1,48.7,29.92,NW,322,0.0,0.0,95,0.00,,---,0.00,VWS V14.01,2013-08-03 12:22:00,
2013-08-03 05:29:00,50.0,48.6,29.92,NW,322,0.0,0.0,95,0.00,,---,0.00,VWS V14.01,2013-08-03 12:29:00,
2013-08-03 05:42:00,49.9,48.5,29.93,NW,322,0.0,0.0,95,0.00,,---,0.00,VWS V14.01,2013-08-03 12:42:00,
2013-08-03 05:51:00,49.8,48.4,29.93,NW,322,0.0,0.0,95,0.00,,---,0.00,VWS V14.01,2013-08-03 12:51:00,
2013-08-03 05:59:00,49.8,48.4,29.93,NW,322,0.0,0.0,95,0.00,,---,0.00,VWS V14.01,2013-08-03 12:59:00,
2013-08-03 06:12:00,49.7,48.3,29.93,NW,322,0.0,0.0,95,0.00,,---,0.00,VWS V14.01,2013-08-03 13:12:00,
2013-08-03 06:22:00,49.6,48.2,29.93,NNW,337,0.0,0.0,95,0.00,,---,0.00,VWS V14.01,2013-08-03 13:22:00,
2013-08-03 06:29:00,49.5,48.1,29.94,NNW,338,0.0,0.0,95,0.00,,---,0.00,VWS V14.01,2013-08-03 13:29:00,
2013-08-03 06:42:00,49.5,48.4,29.94,NNW,338,0.0,0.0,96,0.00,,---,0.00,VWS V14.01,2013-08-03 13:42:00,
2013-08-03 06:52:00,49.7,48.6,29.94,NNW,338,0.0,0.0,96,0.00,,---,0.00,VWS V14.01,2013-08-03 13:52:00,
2013-08-03 06:59:00,49.8,48.7,29.94,NNW,338,0.0,0.0,96,0.00,,---,0.00,VWS V14.01,2013-08-03 13:59:00,
2013-08-03 07:12:00,49.9,48.8,29.95,North,349,0.0,0.0,96,0.00,,---,0.00,VWS V14.01,2013-08-03 14:12:00,
2013-08-03 07:22:00,49.9,48.8,29.95,NNE,13,0.0,0.0,96,0.00,,---,0.00,VWS V14.01,2013-08-03 14:22:00,
2013-08-03 07:29:00,49.9,48.8,29.95,NNE,13,0.0,0.0,96,0.00,,---,0.00,VWS V14.01,2013-08-03 14:29:00,
2013-08-03 07:42:00,50.2,49.1,29.95,NNE,13,0.0,0.0,96,0.00,,---,0.00,VWS V14.01,2013-08-03 14:42:00,
2013-08-03 07:52:00,50.4,49.3,29.96,NNE,13,0.0,0.0,96,0.00,,---,0.00,VWS V14.01,2013-08-03 14:52:00,
2013-08-03 08:00:00,50.5,49.4,29.96,NNE,13,0.0,0.0,96,0.00,,---,0.00,VWS V14.01,2013-08-03 15:00:00,
2013-08-03 08:12:00,50.8,49.7,29.96,NNE,13,0.0,0.0,96,0.00,,---,0.00,VWS V14.01,2013-08-03 15:12:00,
2013-08-03 08:22:00,50.9,49.8,29.97,NNE,13,0.0,0.0,96,0.00,,---,0.00,VWS V14.01,2013-08-03 15:22:00,
2013-08-03 08:30:00,51.4,50.3,29.97,NNE,12,0.0,0.0,96,0.00,,---,0.00,VWS V14.01,2013-08-03 15:30:00,
2013-08-03 08:45:00,52.5,51.1,29.96,NNE,13,0.0,0.0,95,0.00,,---,0.00,VWS V14.01,2013-08-03 15:45:00,
2013-08-03 08:52:00,52.9,50.9,29.96,NNE,13,0.0,0.0,93,0.00,,---,0.00,VWS V14.01,2013-08-03 15:52:00,
2013-08-03 09:00:00,53.4,51.4,29.96,NNE,13,0.0,0.0,93,0.00,,---,0.00,VWS V14.01,2013-08-03 16:00:00,
2013-08-03 09:12:00,53.9,51.6,29.97,NNE,13,0.0,0.0,92,0.00,,---,0.00,VWS V14.01,2013-08-03 16:12:00,
2013-08-03 09:21:00,54.4,51.8,29.96,NNE,12,0.0,0.0,91,0.00,,---,0.00,VWS V14.01,2013-08-03 16:21:00,
2013-08-03 09:29:00,54.8,51.9,29.96,NNE,13,0.0,0.0,90,0.00,,---,0.00,VWS V14.01,2013-08-03 16:29:00,
2013-08-03 09:45:00,55.6,52.7,29.96,North,349,0.0,0.0,90,0.00,,---,0.00,VWS V14.01,2013-08-03 16:45:00,
2013-08-03 09:52:00,56.0,52.8,29.96,North,349,0.0,0.0,89,0.00,,---,0.00,VWS V14.01,2013-08-03 16:52:00,
2013-08-03 10:00:00,56.6,53.1,29.96,North,349,0.0,0.0,88,0.00,,---,0.00,VWS V14.01,2013-08-03 17:00:00,
2013-08-03 10:11:00,57.7,53.8,29.96,North,349,0.0,0.0,87,0.00,,---,0.00,VWS V14.01,2013-08-03 17:11:00,
2013-08-03 10:22:00,58.8,54.0,29.96,NW,316,0.0,1.0,84,0.00,,---,0.00,VWS V14.01,2013-08-03 17:22:00,
2013-08-03 10:30:00,59.6,54.4,29.96,NW,322,0.0,1.0,83,0.00,,---,0.00,VWS V14.01,2013-08-03 17:30:00,
2013-08-03 10:42:00,60.5,55.0,29.96,NW,324,0.0,1.0,82,0.00,,---,0.00,VWS V14.01,2013-08-03 17:42:00,
2013-08-03 10:52:00,61.1,55.2,29.96,NNW,330,0.0,1.0,81,0.00,,---,0.00,VWS V14.01,2013-08-03 17:52:00,
2013-08-03 11:00:00,61.5,55.6,29.96,NNW,333,0.0,1.0,81,0.00,,---,0.00,VWS V14.01,2013-08-03 18:00:00,
2013-08-03 11:12:00,61.9,56.0,29.96,NNW,340,0.0,0.0,81,0.00,,---,0.00,VWS V14.01,2013-08-03 18:12:00,
2013-08-03 11:22:00,62.0,55.8,29.96,NNW,342,0.0,0.0,80,0.00,,---,0.00,VWS V14.01,2013-08-03 18:22:00,
2013-08-03 11:30:00,62.1,55.8,29.95,NNW,342,0.0,0.0,80,0.00,,---,0.00,VWS V14.01,2013-08-03 18:30:00,
2013-08-03 11:45:00,62.9,56.6,29.95,NNW,342,0.0,0.0,80,0.00,,---,0.00,VWS V14.01,2013-08-03 18:45:00,
2013-08-03 11:52:00,63.2,56.6,29.95,NNW,343,0.0,0.0,79,0.00,,---,0.00,VWS V14.01,2013-08-03 18:52:00,
2013-08-03 12:00:00,63.8,56.4,29.95,NNE,25,0.0,1.0,77,0.00,,---,0.00,VWS V14.01,2013-08-03 19:00:00,
2013-08-03 12:15:00,64.3,56.6,29.95,NNE,24,0.0,0.0,76,0.00,,---,0.00,VWS V14.01,2013-08-03 19:15:00,
2013-08-03 12:21:00,64.3,56.6,29.95,NNE,24,0.0,0.0,76,0.00,,---,0.00,VWS V14.01,2013-08-03 19:21:00,
2013-08-03 12:30:00,64.5,56.4,29.95,NNE,24,0.0,0.0,75,0.00,,---,0.00,VWS V14.01,2013-08-03 19:30:00,
2013-08-03 12:42:00,65.0,56.5,29.95,NE,37,0.0,2.0,74,0.00,,---,0.00,VWS V14.01,2013-08-03 19:42:00,
2013-08-03 12:52:00,65.4,56.5,29.95,NE,37,0.0,2.0,73,0.00,,---,0.00,VWS V14.01,2013-08-03 19:52:00,
2013-08-03 13:00:00,66.0,57.1,29.95,ENE,57,0.0,2.0,73,0.00,,---,0.00,VWS V14.01,2013-08-03 20:00:00,
2013-08-03 13:12:00,66.1,56.4,29.95,East,87,0.0,2.0,71,0.00,,---,0.00,VWS V14.01,2013-08-03 20:12:00,
2013-08-03 13:22:00,65.9,56.2,29.95,NE,49,0.0,3.0,71,0.00,,---,0.00,VWS V14.01,2013-08-03 20:22:00,
2013-08-03 13:30:00,65.6,56.3,29.95,NE,55,0.0,2.0,72,0.00,,---,0.00,VWS V14.01,2013-08-03 20:30:00,
2013-08-03 13:45:00,65.1,56.2,29.95,ENE,63,0.0,1.0,73,0.00,,---,0.00,VWS V14.01,2013-08-03 20:45:00,
2013-08-03 13:52:00,65.0,56.1,29.95,NNE,16,0.0,2.0,73,0.00,,---,0.00,VWS V14.01,2013-08-03 20:52:00,
2013-08-03 14:00:00,64.7,55.8,29.95,NE,41,0.0,2.0,73,0.00,,---,0.00,VWS V14.01,2013-08-03 21:00:00,
2013-08-03 14:12:00,63.3,55.2,29.95,NNE,30,0.0,2.0,75,0.00,,---,0.00,VWS V14.01,2013-08-03 21:12:00,
2013-08-03 14:22:00,63.1,55.4,29.95,NE,37,0.0,1.0,76,0.00,,---,0.00,VWS V14.01,2013-08-03 21:22:00,
2013-08-03 14:30:00,63.0,54.9,29.95,NE,36,1.0,2.0,75,0.00,,---,0.00,VWS V14.01,2013-08-03 21:30:00,
2013-08-03 14:42:00,62.7,55.0,29.95,NE,37,0.0,2.0,76,0.00,,---,0.00,VWS V14.01,2013-08-03 21:42:00,
2013-08-03 14:52:00,62.7,55.0,29.95,NE,49,1.0,2.0,76,0.00,,---,0.00,VWS V14.01,2013-08-03 21:52:00,
2013-08-03 15:00:00,62.7,55.0,29.94,NE,43,0.0,4.0,76,0.00,,---,0.00,VWS V14.01,2013-08-03 22:00:00,
2013-08-03 15:12:00,62.5,55.2,29.94,NNE,17,0.0,1.0,77,0.00,,---,0.00,VWS V14.01,2013-08-03 22:12:00,
2013-08-03 15:22:00,62.7,55.0,29.94,NE,39,2.0,2.0,76,0.00,,---,0.00,VWS V14.01,2013-08-03 22:22:00,
2013-08-03 15:30:00,62.5,54.8,29.94,NNE,23,0.0,2.0,76,0.00,,---,0.00,VWS V14.01,2013-08-03 22:30:00,
2013-08-03 15:42:00,61.5,54.2,29.94,NE,41,0.0,2.0,77,0.00,,---,0.00,VWS V14.01,2013-08-03 22:42:00,
2013-08-03 15:52:00,61.2,54.3,29.94,NE,37,1.0,3.0,78,0.00,,---,0.00,VWS V14.01,2013-08-03 22:52:00,
2013-08-03 16:00:00,61.2,54.6,29.93,NNE,23,0.0,3.0,79,0.00,,---,0.00,VWS V14.01,2013-08-03 23:00:00,
2013-08-03 16:12:00,60.7,54.1,29.93,NNW,333,0.0,1.0,79,0.00,,---,0.00,VWS V14.01,2013-08-03 23:12:00,
2013-08-03 16:22:00,60.0,53.8,29.93,NNW,336,0.0,0.0,80,0.00,,---,0.00,VWS V14.01,2013-08-03 23:22:00,
2013-08-03 16:30:00,59.5,53.7,29.93,NE,46,1.0,2.0,81,0.00,,---,0.00,VWS V14.01,2013-08-03 23:30:00,
2013-08-03 16:41:00,58.9,53.7,29.94,NE,46,0.0,1.0,83,0.00,,---,0.00,VWS V14.01,2013-08-03 23:41:00,
2013-08-03 16:52:00,58.8,53.6,29.93,North,352,0.0,1.0,83,0.00,,---,0.00,VWS V14.01,2013-08-03 23:52:00,
2013-08-03 17:00:00,58.8,53.6,29.93,NNE,25,0.0,1.0,83,0.00,,---,0.00,VWS V14.01,2013-08-04 00:00:00,
2013-08-03 17:12:00,59.1,53.9,29.93,NNE,17,0.0,1.0,83,0.00,,---,0.00,VWS V14.01,2013-08-04 00:12:00,
2013-08-03 17:22:00,59.2,53.7,29.92,NNE,17,0.0,1.0,82,0.00,,---,0.00,VWS V14.01,2013-08-04 00:22:00,
2013-08-03 17:30:00,59.0,53.8,29.92,NNE,17,0.0,1.0,83,0.00,,---,0.00,VWS V14.01,2013-08-04 00:30:00,
2013-08-03 17:42:00,58.5,53.3,29.92,North,7,0.0,0.0,83,0.00,,---,0.00,VWS V14.01,2013-08-04 00:42:00,
2013-08-03 17:52:00,57.5,52.7,29.92,North,6,0.0,0.0,84,0.00,,---,0.00,VWS V14.01,2013-08-04 00:52:00,
2013-08-03 18:00:00,56.6,52.1,29.92,North,7,0.0,0.0,85,0.00,,---,0.00,VWS V14.01,2013-08-04 01:00:00,
2013-08-03 18:12:00,55.6,52.1,29.92,North,6,0.0,0.0,88,0.00,,---,0.00,VWS V14.01,2013-08-04 01:12:00,
2013-08-03 18:22:00,55.3,52.1,29.92,North,6,0.0,0.0,89,0.00,,---,0.00,VWS V14.01,2013-08-04 01:22:00,
2013-08-03 18:30:00,55.2,52.0,29.91,North,7,0.0,0.0,89,0.00,,---,0.00,VWS V14.01,2013-08-04 01:30:00,
2013-08-03 18:45:00,54.9,51.7,29.91,North,6,0.0,0.0,89,0.00,,---,0.00,VWS V14.01,2013-08-04 01:45:00,
2013-08-03 18:52:00,54.6,51.7,29.91,North,7,0.0,0.0,90,0.00,,---,0.00,VWS V14.01,2013-08-04 01:52:00,
2013-08-03 19:00:00,54.3,51.4,29.91,North,7,0.0,0.0,90,0.00,,---,0.00,VWS V14.01,2013-08-04 02:00:00,
2013-08-03 19:12:00,54.1,51.5,29.92,North,7,0.0,0.0,91,0.00,,---,0.00,VWS V14.01,2013-08-04 02:12:00,
2013-08-03 19:22:00,54.0,51.4,29.92,North,6,0.0,0.0,91,0.00,,---,0.00,VWS V14.01,2013-08-04 02:22:00,
2013-08-03 19:30:00,53.8,51.2,29.92,North,7,0.0,0.0,91,0.00,,---,0.00,VWS V14.01,2013-08-04 02:30:00,
2013-08-03 19:45:00,53.5,50.9,29.91,North,7,0.0,0.0,91,0.00,,---,0.00,VWS V14.01,2013-08-04 02:45:00,
2013-08-03 19:52:00,53.4,51.1,29.92,North,7,0.0,0.0,92,0.00,,---,0.00,VWS V14.01,2013-08-04 02:52:00,
2013-08-03 20:00:00,53.0,51.0,29.92,North,6,0.0,0.0,93,0.00,,---,0.00,VWS V14.01,2013-08-04 03:00:00,
2013-08-03 20:12:00,52.9,50.9,29.92,North,7,0.0,0.0,93,0.00,,---,0.00,VWS V14.01,2013-08-04 03:12:00,
2013-08-03 20:22:00,52.7,50.7,29.92,North,7,0.0,0.0,93,0.00,,---,0.00,VWS V14.01,2013-08-04 03:22:00,
2013-08-03 20:30:00,52.5,50.8,29.92,North,7,0.0,0.0,94,0.00,,---,0.00,VWS V14.01,2013-08-04 03:30:00,
2013-08-03 20:42:00,52.2,50.8,29.92,North,7,0.0,0.0,95,0.00,,---,0.00,VWS V14.01,2013-08-04 03:42:00,
2013-08-03 20:51:00,52.0,50.6,29.92,North,7,0.0,0.0,95,0.00,,---,0.00,VWS V14.01,2013-08-04 03:51:00,
2013-08-03 21:00:00,51.8,50.7,29.92,North,6,0.0,0.0,96,0.00,,---,0.00,VWS V14.01,2013-08-04 04:00:00,
2013-08-03 21:02:00,51.8,50.7,29.92,North,6,0.0,0.0,96,0.00,,---,0.00,VWS V14.01,2013-08-04 04:02:00,
2013-08-03 21:11:00,51.6,50.5,29.93,North,7,0.0,0.0,96,0.00,,---,0.00,VWS V14.01,2013-08-04 04:11:00,
2013-08-03 21:21:00,51.5,50.4,29.93,North,6,0.0,0.0,96,0.00,,---,0.00,VWS V14.01,2013-08-04 04:21:00,
2013-08-03 21:30:00,51.4,50.3,29.93,North,7,0.0,0.0,96,0.00,,---,0.00,VWS V14.01,2013-08-04 04:30:00,
2013-08-03 21:42:00,51.2,50.1,29.94,North,6,0.0,0.0,96,0.00,,---,0.00,VWS V14.01,2013-08-04 04:42:00,
2013-08-03 21:45:00,51.2,50.1,29.94,North,7,0.0,0.0,96,0.00,,---,0.00,VWS V14.01,2013-08-04 04:45:00,
2013-08-03 21:52:00,51.1,50.0,29.94,North,6,0.0,0.0,96,0.00,,---,0.00,VWS V14.01,2013-08-04 04:52:00,
2013-08-03 22:00:00,51.0,49.9,29.94,North,7,0.0,0.0,96,0.00,,---,0.00,VWS V14.01,2013-08-04 05:00:00,
2013-08-03 22:12:00,51.1,50.0,29.95,North,7,0.0,0.0,96,0.00,,---,0.00,VWS V14.01,2013-08-04 05:12:00,
2013-08-03 22:22:00,51.1,50.0,29.94,North,6,0.0,0.0,96,0.00,,---,0.00,VWS V14.01,2013-08-04 05:22:00,
2013-08-03 22:30:00,51.0,49.9,29.94,North,7,0.0,0.0,96,0.00,,---,0.00,VWS V14.01,2013-08-04 05:30:00,
2013-08-03 22:42:00,51.0,49.9,29.95,North,7,0.0,0.0,96,0.00,,---,0.00,VWS V14.01,2013-08-04 05:42:00,
2013-08-03 22:51:00,50.9,50.1,29.95,North,6,0.0,0.0,97,0.00,,---,0.00,VWS V14.01,2013-08-04 05:51:00,
2013-08-03 23:00:00,50.8,50.0,29.95,North,7,0.0,0.0,97,0.00,,---,0.00,VWS V14.01,2013-08-04 06:00:00,
2013-08-03 23:12:00,50.6,49.8,29.95,North,7,0.0,0.0,97,0.00,,---,0.00,VWS V14.01,2013-08-04 06:12:00,
2013-08-03 23:21:00,50.6,49.8,29.95,North,7,0.0,0.0,97,0.00,,---,0.00,VWS V14.01,2013-08-04 06:21:00,
2013-08-03 23:30:00,50.5,49.4,29.95,North,6,0.0,0.0,96,0.00,,---,0.00,VWS V14.01,2013-08-04 06:30:00,
2013-08-03 23:42:00,50.3,49.2,29.95,North,7,0.0,0.0,96,0.00,,---,0.00,VWS V14.01,2013-08-04 06:42:00,
2013-08-03 23:52:00,50.3,49.5,29.96,North,6,0.0,0.0,97,0.00,,---,0.00,VWS V14.01,2013-08-04 06:52:00,